Flag for Austria Weather past 2 weeks in Mürzzuschlag, Styria, Austria

Now
65 °F

Mild.


Feels Like: 65 °F
Forecast: 49 / 71 °F
Wind: 1 mph from East

Location: Eisenstadt

Current Time: Aug 2, 2015 at 4:27:39 AM

Latest Report: Aug 2, 2015 at 3:00 AM


Visibility: N/A

Pressure: 29.99 "Hg (27.72 "Hg at 670m altitude)

Humidity: 79%

Dew point: 58 °F

Location of MürzzuschlagLocation

Historic Weather in Mürzzuschlag — Graph

°F

Mürzzuschlag temperature yesterday

Maximum temperature yesterday: 80 °F (at 4:00 PM)
Minimum temperature yesterday: 54 °F (at 5:00 AM)
Average temperature yesterday: 68 °F

Past Weeks' High & Low Weather Summary

 TemperatureHumidityPressure
High97 °F (Jul 22, 4:00 PM)96% (Jul 29, 11:00 PM)30.05 "Hg (Jul 29, 11:00 PM)
Low54 °F (Aug 1, 5:00 AM)29% (Jul 31, 6:00 PM)29.67 "Hg (Jul 25, 3:00 PM)
Average74 °F62%29.88 "Hg
* Reported Jul 18 2:00 AM — Aug 2 2:00 AM, Mürzzuschlag, Weather by CustomWeather, © 2015

Note: Actual official high and low records may vary slightly from our data, if they occured in-between our weather recording intervals... More about our weather records

Advertising

Mürzzuschlag weather history for previous 24 hours

 ConditionsComfort  
Time TempWeatherWind HumidityBarometerVisibility
2:00 AM
Sun, Aug 2
64 °FPassing clouds.1 mph79%30.00 "Hg12 mi
1:00 AM65 °FMild.2 mph76%30.00 "HgN/A
12:00 AM64 °FMild.No wind77%30.00 "HgN/A
11:00 PM
Sat, Aug 1
65 °FPassing clouds.1 mph75%29.99 "Hg16 mi
10:00 PM67 °FMild.No wind69%29.98 "HgN/A
9:00 PM71 °FMild.3 mph57%29.95 "HgN/A
8:00 PM75 °FPassing clouds.3 mph46%29.93 "Hg16 mi
6:00 PM79 °FPleasantly warm.7 mph37%29.94 "HgN/A
5:00 PM80 °FPartly sunny.8 mph34%29.94 "Hg17 mi
4:00 PM80 °FPleasantly warm.7 mph33%29.95 "HgN/A
3:00 PM79 °FPleasantly warm.9 mph35%29.96 "HgN/A
2:00 PM79 °FScattered clouds.8 mph35%29.98 "Hg17 mi
1:00 PM78 °FPleasantly warm.7 mph34%29.99 "HgN/A
12:00 PM76 °FMild.8 mph37%30.00 "HgN/A
11:00 AM72 °FPartly sunny.9 mph52%30.01 "Hg16 mi
10:00 AM67 °FMild.6 mph59%30.03 "HgN/A
9:00 AM63 °FMild.5 mph64%30.03 "HgN/A
8:00 AM61 °FPassing clouds.2 mph66%30.04 "Hg16 mi
7:00 AM59 °FScattered clouds.3 mph65%30.03 "Hg16 mi
5:00 AM54 °FPassing clouds.2 mph84%30.03 "Hg12 mi
4:00 AM55 °FPassing clouds.5 mph82%30.03 "Hg12 mi
Weather by CustomWeather, © 2015

See weather overviewHow to use our weather pages